User: anonymous   Login
Location: Beccas
(43.4309°N, 0.1528°E)
Time: 17:24:56
(UTC+00:00)
Language:

Cosmos 1703 - Orbit

View from above orbital plane
View from above orbital plane
View from above satellite
View from above satellite

Ground track
Ground track

The orbit data is extracted from the following two-line orbital elements,

1 16262U 85108A   22021.88198889  .00001238  00000-0  70046-4 0  9990
2 16262  82.4764  38.2055 0009642 256.0556 103.9602 15.12146991972236
Epoch (UTC): 21 January 2022 21:10:03
Eccentricity: 0.0009642
inclination: 82.4764°
perigee height: 523 km
apogee height: 536 km
right ascension of ascending node: 38.2055°
argument of perigee: 256.0556°
revolutions per day: 15.12146991
mean anomaly at epoch: 103.9602°
orbit number at epoch: 97223

The dashed part of the orbit path shows where the satellite is in the earth's shadow,  

DLR